Simultaneous Nadir Overpasses (SNOs) Predictions

Prediction of SNOs between NPP and TERRA Satellite Orbit:

Table of predicted SNOs for the next 14.0 days since TLE Epoch: 11/26/2016
Index Date (NPP) Time (NPP) Lat,Lon (NPP) SZA (NPP ) Date (TERRA) Time (TERRA) Lat,Lon (TERRA) SZA (TERRA ) Distance(km) Time Diff (sec)
1 11/26/2016 10:39:56 68.39, 18.70 89.34 11/26/2016 10:40:32 68.41, 18.72 89.36 2.60 36
2 11/26/2016 11:30:37 -68.24,-173.79 90.80 11/26/2016 11:30:03 -68.25,-173.84 90.80 2.27 34
3 11/29/2016 02:06:16 -69.04, -33.71 89.55 11/29/2016 02:07:26 -68.94, -32.39 89.64 53.66 70
4 11/29/2016 02:56:49 68.34, 134.53 89.76 11/29/2016 02:57:02 68.33, 134.50 89.75 1.61 13
5 11/29/2016 03:47:31 -68.24, -58.03 90.33 11/29/2016 03:46:32 -68.23, -57.99 90.35 2.36 59
6 12/01/2016 18:23:00 -68.46, 82.84 89.71 12/01/2016 18:24:04 -68.47, 82.90 89.69 3.07 64
7 12/01/2016 19:13:43 68.30,-109.64 90.14 12/01/2016 19:13:32 68.30,-109.66 90.14 0.97 11
8 12/01/2016 20:04:19 -67.87, 58.21 90.28 12/01/2016 20:03:07 -67.92, 57.52 90.24 29.08 72
9 12/04/2016 10:39:54 -68.41,-161.33 89.39 12/04/2016 10:40:35 -68.39,-161.33 89.41 2.91 41
10 12/04/2016 11:30:37 68.26, 6.18 90.47 12/04/2016 11:30:02 68.27, 6.18 90.48 1.90 35
11 12/07/2016 02:06:17 69.07, 146.24 91.59 12/07/2016 02:07:26 68.96, 147.63 91.49 56.67 69
12 12/07/2016 02:56:48 -68.37, -45.51 89.11 12/07/2016 02:57:05 -68.35, -45.49 89.13 2.36 17
13 12/07/2016 03:47:31 68.22, 122.00
